Temp
14 15 16 17 18 18 18 18 17 18 18 18 18 18 18 18 18 17 17 17 17 17 17 17 17 17 17 17 17 17 18 18 18 19 19 18 19 18 19 19 19 19 19
11 14 15 16 17 17 18 18 18 18 18 18 18 18 18 18 18 17 17 17 17 17 17 17 17 17 17 18 17 17 18 18 19 19 19 19 18 19 19 19 19 19 19
12 14 15 15 16 16 17 17 17 17 17 17 18 17 17 17 17 17 17 17 17 17 17 17 16 16 17 17 18 18 18 18 18 19 19 18 18 19 19 19 19 19 19
12 13 14 15 15 16 16 16 16 16 16 16 16 17 17 17 17 17 17 17 17 17 16 16 17 17 17 18 18 18 18 18 18 18 18 18 18 19 19 19 19 19 18
12 12 13 14 14 15 15 15 15 15 15 15 15 16 16 17 17 16 16 17 17 17 17 17 17 17 17 17 17 18 18 18 18 18 18 18 18 18 19 19 19 19 18
11 12 11 12 13 13 13 13 13 13 13 14 14 14 15 15 15 15 15 16 16 16 16 16 16 17 17 17 17 16 17 18 18 18 18 18 18 18 18 18 18 19 18
11 11 11 10 11 12 12 12 12 12 14 14 14 14 13 14 14 14 15 15 15 15 15 15 16 16 16 17 17 17 17 17 18 18 18 18 18 18 18 17 18 18 18
10 10 11 11 9 10 10 10 11 12 14 15 15 15 16 16 15 16 15 15 14 14 14 15 16 17 16 16 16 16 17 17 17 18 18 18 18 18 18 18 17 18 18
10 11 11 11 12 12 10 11 13 13 14 14 14 14 14 14 15 15 15 15 15 15 15 16 16 17 17 16 16 16 16 16 16 17 18 18 18 18 18 18 18 17 17
10 10 10 10 11 11 12 12 13 13 13 14 14 14 14 14 14 14 14 13 13 14 14 15 15 16 16 16 16 16 16 16 15 16 16 17 18 18 18 17 18 18 17
9 9 9 10 11 11 11 11 12 12 12 12 12 12 13 12 12 12 13 13 13 13 14 14 14 14 15 16 15 16 16 16 16 15 15 16 17 18 18 18 18 17 17
6 7 8 9 9 9 9 10 10 10 11 11 11 11 11 11 11 12 12 12 13 13 13 13 14 14 14 14 14 15 15 15 15 16 16 16 16 16 17 17 18 18 17
4 6 6 7 8 9 9 9 9 9 9 10 10 10 10 10 10 11 11 11 11 11 12 12 13 13 12 12 13 13 14 14 15 15 16 16 16 16 15 16 18 17 18
4 5 6 7 7 7 8 8 8 8 8 8 8 8 9 9 9 8 8 9 9 9 10 10 10 11 11 11 11 12 13 13 13 14 15 15 16 16 16 16 16 17 17
4 4 5 5 6 6 7 6 6 6 6 6 6 6 7 7 7 7 7 7 7 7 7 7 8 8 10 11 11 11 12 12 13 13 13 15 15 15 16 16 17 17 17
3 3 4 5 5 6 6 5 5 5 5 5 5 5 5 5 5 5 5 6 6 6 6 6 6 7 7 7 9 10 11 11 12 12 13 14 15 15 15 16 16 17 16
3 3 4 4 4 5 5 5 5 4 5 5 4 4 4 4 4 4 4 4 4 4 4 4 4 4 4 5 5 7 8 10 11 12 13 13 14 15 15 15 15 16 16
2 3 3 3 4 4 4 4 4 4 4 4 4 4 4 3 3 3 3 2 2 2 2 2 1 1 1 2 3 4 5 6 9 11 12 13 13 14 14 15 15 15 15
2 2 3 3 3 3 4 4 4 4 4 4 3 3 3 3 2 2 1 0 -0 -1 -1 -1 -1 -1 -0 1 2 2 3 5 7 8 10 12 13 13 13 14 14 14 14
1 2 2 2 3 4 4 4 4 3 3 2 2 1 1 1 1 1 0 -0 -1 -2 -2 -2 -2 -2 -1 -0 -0 2 2 3 7 8 9 9 8 9 9 10 12 12 14
1 1 1 2 2 3 3 3 3 2 1 1 1 1 1 0 -0 -1 -2 -2 -3 -3 -3 -3 -3 -2 -1 -1 -0 1 2 5 6 5 6 7 7 7 8 8 8 9 10
0 0 1 1 1 0 0 -0 -1 -0 0 0 -0 -0 -0 -0 -1 -1 -1 -2 -2 -4 -3 -4 -4 -3 -3 -3 -2 -0 3 5 3 4 5 5 5 5 6 6 6 7 8
-0 0 0 -0 -1 -1 -1 -0 -0 -1 -2 -2 -1 -1 -1 -1 -1 -2 -2 -2 -3 -4 -4 -4 -4 -4 -4 -3 -3 -2 1 3 1 4 3 4 3 3 4 4 5 5 6
-0 -0 -1 -1 -1 -1 -1 -1 -2 -3 -4 -4 -4 -3 -2 -2 -2 -2 -3 -4 -4 -5 -5 -5 -4 -5 -5 -4 -4 -3 -2 -2 -1 1 3 2 1 3 3 3 2 3 4
-1 -1 -1 -1 -1 -1 -2 -2 -3 -3 -4 -4 -4 -4 -3 -2 -2 -3 -3 -4 -5 -6 -6 -6 -6 -6 -5 -5 -4 -4 -4 -3 -3 -2 -0 1 1 1 1 1 1 1 2
-1 -1 -1 -2 -2 -2 -2 -3 -3 -4 -4 -5 -4 -5 -5 -4 -4 -3 -4 -4 -5 -6 -6 -6 -6 -6 -6 -6 -5 -5 -4 -3 -2 -2 -1 -0 -0 -1 -1 -0 -0 1 2
Height
857 854 853 853 852 850 848 847 847 846 845 844 844 844 843 843 843 843 843 843 842 841 841 840 840 839 839 838 838 837 836 835 835 834 833 833 832 832 832 832 833 832 832
863 859 855 855 852 851 849 849 848 847 847 846 846 846 845 845 846 846 846 845 844 843 843 843 842 841 840 839 839 839 839 838 837 836 835 835 835 834 833 834 834 834 833
865 861 858 857 855 853 852 852 851 850 849 849 849 848 848 848 848 848 848 846 846 845 845 844 844 843 842 842 841 840 840 840 839 838 837 837 837 836 836 835 835 835 834
867 864 862 862 860 858 855 853 852 852 850 850 851 850 851 851 851 850 850 849 848 847 846 846 845 845 844 843 843 842 841 841 841 840 839 839 839 838 838 837 836 836 835
868 867 864 865 862 860 858 857 855 855 854 853 853 853 853 853 852 852 851 851 850 849 848 847 846 846 845 845 844 843 842 842 841 841 841 840 840 839 839 838 838 837 836
870 868 865 868 866 864 861 859 858 857 857 856 855 855 855 854 853 853 852 851 851 850 849 849 848 847 846 845 844 844 843 843 842 841 841 841 840 840 839 838 838 837 838
871 868 866 869 869 865 864 861 860 860 859 858 857 856 856 856 855 854 854 853 852 851 850 849 848 847 846 845 845 844 843 842 842 841 840 840 840 839 838 838 837 837 837
873 872 870 869 868 867 865 864 863 863 861 861 861 860 858 857 856 855 855 854 854 853 852 850 848 847 846 845 844 844 843 842 841 840 839 839 838 838 837 837 836 837 837
874 873 872 870 868 868 869 867 866 865 864 864 863 862 860 859 858 857 856 855 855 853 852 850 848 847 846 845 844 843 842 841 840 839 838 837 836 836 835 835 836 836 837
876 875 874 873 873 872 869 868 867 866 866 864 864 863 861 860 859 858 856 855 854 853 852 851 849 847 846 844 843 841 840 840 839 838 836 835 835 834 833 834 834 835 835
876 875 875 875 873 872 871 869 868 867 867 866 865 865 863 862 861 860 858 857 856 855 853 851 849 846 845 844 842 841 840 838 837 836 836 834 833 832 831 831 831 832 833
879 879 877 876 875 874 873 872 870 870 869 868 867 867 865 864 863 862 860 858 857 855 853 851 849 847 844 842 841 839 839 837 835 833 833 833 831 830 829 829 829 828 829
883 882 882 880 879 877 876 875 874 872 871 870 869 869 867 865 864 861 860 858 856 854 852 850 848 846 845 842 840 838 837 836 834 832 830 829 828 828 827 827 826 825 825
885 885 884 883 881 880 878 877 876 875 874 873 873 871 869 867 865 863 861 859 857 855 853 851 849 847 845 843 840 837 835 833 831 829 827 826 825 824 823 823 823 822 821
888 888 887 886 884 883 882 881 879 878 878 877 876 874 871 869 867 865 863 861 859 857 854 851 848 846 843 840 838 836 833 831 828 827 824 823 822 820 819 818 818 818 818
890 889 889 888 887 886 884 883 882 881 880 878 877 875 873 871 869 867 864 862 859 857 855 852 848 844 841 838 835 833 830 828 825 823 821 818 817 816 815 813 813 812 813
892 892 891 890 889 888 887 886 884 883 881 879 878 876 873 871 869 867 865 862 858 856 854 851 847 843 840 835 832 828 825 823 820 819 817 814 812 811 809 808 807 807 807
894 893 893 892 890 889 888 887 886 884 882 880 879 877 874 872 869 866 864 861 858 855 852 849 846 842 838 834 828 824 821 818 815 812 810 809 808 806 804 802 802 802 801
894 894 893 892 891 890 889 888 887 885 883 881 879 876 873 870 868 865 863 861 858 855 852 849 845 842 837 832 827 821 817 813 809 806 804 802 801 800 798 796 796 795 796
894 894 893 893 892 891 890 888 887 885 883 881 879 877 874 871 869 866 864 861 859 855 852 849 845 841 837 832 824 817 811 806 803 800 797 795 795 794 793 792 790 788 789
893 893 893 892 891 889 887 885 883 883 882 881 879 877 874 871 869 866 863 861 859 855 852 848 844 841 836 831 822 813 805 800 798 797 795 793 792 790 788 787 787 785 784
892 892 893 892 892 890 889 888 887 885 882 880 878 876 874 871 867 864 862 859 856 853 850 847 844 840 837 835 831 823 803 795 794 793 793 792 790 787 785 784 783 782 781
891 892 892 893 892 891 890 888 886 883 882 881 877 874 872 870 867 864 860 857 854 852 849 846 843 840 836 834 834 834 819 805 802 791 789 789 789 787 784 781 780 779 778
891 891 892 892 891 890 889 887 885 885 884 880 878 874 869 866 864 860 856 853 850 849 846 843 841 839 836 830 829 828 826 822 813 789 788 786 788 784 783 780 776 776 774
889 890 890 890 889 888 887 886 884 883 881 878 874 870 867 862 860 857 854 850 847 844 843 839 836 835 833 830 826 824 821 818 814 807 781 783 784 785 781 777 772 770 770
887 888 888 888 887 886 885 883 881 879 876 873 870 866 863 860 855 853 850 846 842 838 835 832 830 829 828 823 821 818 816 812 806 802 790 781 778 778 776 772 769 766 765
Wind_Speed
25 30 28 14 14 15 16 17 17 17 18 18 18 17 17 16 16 17 17 16 16 16 16 16 15 14 13 14 15 14 14 12 11 11 10 8 7 9 10 11 9 11 12
17 27 30 25 17 16 16 16 16 16 17 17 17 16 17 16 14 15 15 15 16 16 15 15 15 13 12 12 12 12 13 11 9 9 8 8 6 5 7 9 9 9 11
19 24 30 24 23 24 20 17 18 19 19 17 16 17 17 16 15 14 14 15 15 15 15 14 13 13 12 10 9 9 12 13 9 6 8 8 6 4 4 5 7 8 10
16 23 28 23 23 22 22 23 24 23 22 19 18 18 16 14 15 14 14 13 14 14 14 13 13 12 12 11 9 8 9 11 11 9 6 5 5 4 2 2 4 6 8
15 18 27 23 22 23 24 24 24 24 24 25 23 19 18 17 16 16 15 15 15 14 14 13 12 12 11 9 10 9 7 8 7 7 8 5 4 3 3 2 2 4 6
17 15 24 23 22 23 23 24 23 24 24 24 21 20 18 16 17 20 19 17 16 16 14 13 12 11 10 10 9 8 8 7 7 6 7 7 7 6 5 5 6 6 6
17 18 17 21 24 25 25 25 24 23 22 22 21 21 21 21 19 18 16 15 16 18 17 15 14 11 10 10 9 9 9 8 8 8 8 8 9 10 10 9 7 7 8
17 18 19 17 20 24 25 24 23 22 21 20 19 18 17 16 16 15 14 14 16 17 17 15 13 11 12 11 11 10 11 11 10 9 9 9 9 10 12 12 10 9 9
18 16 18 19 20 18 21 21 20 19 19 18 18 18 17 16 16 16 16 16 15 15 15 14 14 13 11 10 10 11 11 11 12 11 10 10 10 11 11 12 13 10 9
19 19 19 17 17 19 18 17 15 15 15 15 15 15 14 14 14 14 14 15 15 15 15 15 14 14 11 10 10 10 11 13 12 13 13 12 11 12 11 10 11 11 11
20 20 19 17 16 16 17 17 16 16 16 18 19 18 18 19 18 18 16 15 16 16 16 15 14 13 12 11 11 11 11 11 12 13 13 13 13 14 13 12 11 13 13
19 20 20 18 18 17 19 20 21 21 22 22 22 21 21 21 20 18 18 16 16 15 15 16 16 16 16 16 16 14 14 14 13 12 13 15 15 15 16 15 13 13 14
18 20 21 21 21 21 21 22 23 24 24 24 24 24 23 22 23 23 22 23 23 23 23 22 21 20 20 20 18 17 17 17 15 16 14 14 15 17 17 17 16 17 16
20 21 21 21 22 22 22 23 24 24 25 26 26 25 26 26 26 26 26 26 26 26 25 25 24 23 23 22 22 20 19 19 19 19 19 17 17 17 18 18 18 18 20
19 18 19 19 20 21 23 23 23 24 24 23 24 25 26 26 26 26 26 26 26 26 27 26 26 25 25 25 24 25 24 22 22 22 22 22 21 19 19 19 20 18 19
15 17 17 18 18 19 20 21 22 22 23 24 25 26 26 26 26 25 25 26 26 27 27 27 26 27 25 25 26 26 26 26 24 25 25 26 25 25 22 21 21 21 21
15 14 15 16 15 16 19 19 20 21 21 24 25 25 26 26 26 26 24 25 25 25 25 26 25 26 25 26 26 27 25 27 29 28 28 27 27 27 27 24 22 22 22
13 15 15 14 15 15 15 17 18 19 20 22 23 24 25 25 26 25 24 25 26 25 24 25 24 27 25 25 26 27 28 29 30 31 28 27 29 28 28 29 25 23 22
11 11 13 13 14 14 14 14 16 16 19 19 22 23 24 25 26 26 24 24 24 22 22 21 21 20 25 26 26 28 29 28 31 30 30 30 29 29 27 28 29 27 24
10 10 10 11 13 13 13 13 15 18 20 20 24 25 25 26 26 26 24 25 25 23 21 21 22 20 20 22 29 29 24 30 31 25 22 19 18 18 18 20 23 23 26
9 8 9 10 13 14 17 20 21 22 21 21 25 25 25 26 27 25 23 23 22 20 21 20 19 22 21 20 23 27 24 21 15 12 10 12 8 7 8 9 12 12 13
8 7 8 9 12 15 17 19 17 19 17 18 24 25 25 25 24 23 24 24 24 22 21 20 19 20 17 18 15 20 8 15 4 15 19 12 12 14 16 15 13 14 15
8 6 6 10 11 14 16 18 20 18 18 18 26 26 25 24 24 24 24 23 24 21 20 20 19 17 19 18 13 8 5 5 23 14 14 24 18 22 21 18 21 21 19
8 5 5 8 10 13 16 17 18 16 15 16 21 24 26 26 26 25 24 22 22 20 19 19 18 19 18 19 17 10 14 19 6 11 11 23 33 27 24 22 25 28 22
8 5 4 7 9 11 13 15 17 16 15 20 22 26 28 29 29 29 27 25 23 20 20 21 21 20 19 20 18 20 20 21 22 14 16 15 21 24 27 30 26 24 32
8 4 2 5 8 12 14 15 15 16 19 20 23 23 23 26 28 29 28 26 26 24 23 23 23 22 23 23 23 22 23 19 19 18 13 20 21 25 27 28 29 24 21
Wind_Direction
18 25 20 33 56 67 67 64 64 63 62 62 58 57 60 60 56 53 52 51 49 49 46 46 48 52 49 47 46 47 46 49 51 56 71 80 109 118 114 117 116 110 108
360 30 29 35 45 55 61 65 65 66 63 57 61 58 54 54 58 52 50 48 47 46 45 43 43 45 48 51 50 45 36 39 44 49 60 75 84 98 122 129 128 125 114
29 46 36 33 39 48 52 58 59 58 56 52 53 54 53 51 49 46 44 41 41 40 41 39 39 39 39 43 48 43 34 31 38 50 55 57 58 74 116 134 135 136 127
38 53 42 37 43 48 50 52 53 51 50 50 49 50 49 48 49 45 41 39 36 33 32 31 30 32 33 33 30 32 33 33 39 39 41 40 41 38 46 129 146 145 131
47 61 52 42 49 54 56 58 57 51 50 50 50 48 45 42 42 42 39 35 30 26 23 20 18 17 19 21 22 16 13 20 24 20 14 5 1 16 325 289 185 163 146
48 58 67 48 51 54 53 54 55 52 51 51 50 56 55 47 48 44 44 44 35 27 20 14 10 5 3 3 2 360 358 346 343 345 340 342 333 312 299 266 236 226 196
50 49 62 48 50 54 54 54 54 53 54 53 51 51 50 48 44 41 38 33 29 27 22 15 9 0 355 349 348 346 341 335 331 320 314 310 317 321 298 260 250 230 208
57 57 56 56 54 51 51 53 54 54 55 55 53 51 48 44 39 35 31 28 30 28 22 15 6 0 357 350 344 337 332 330 321 316 303 304 299 308 306 285 249 236 226
60 61 60 57 56 54 57 56 58 57 57 55 53 50 47 45 39 36 32 31 27 24 20 15 11 5 355 349 347 341 330 324 321 316 301 293 291 301 303 311 248 246 242
63 63 64 64 65 63 61 61 61 58 57 53 47 45 42 41 39 35 34 31 27 25 22 18 17 13 8 358 347 342 333 329 326 318 311 298 288 288 291 307 272 247 247
61 59 62 65 65 67 62 60 55 52 48 46 42 37 34 32 30 25 22 16 11 12 8 7 7 9 4 358 353 347 340 337 328 326 316 310 296 287 284 291 282 257 256
55 57 58 61 61 62 60 58 56 52 49 46 43 38 38 35 32 26 23 15 9 3 359 357 354 351 352 352 348 345 346 340 330 324 319 315 308 294 284 279 279 266 255
63 64 62 63 62 63 63 61 58 53 49 47 43 40 37 33 29 24 19 15 10 6 2 357 353 351 348 344 337 333 332 329 327 322 313 310 306 304 296 281 277 262 258
70 67 67 68 69 66 65 61 57 53 48 43 38 34 31 28 25 22 18 13 10 6 2 359 354 348 343 339 335 327 322 318 316 312 307 307 304 298 296 284 281 269 254
77 72 70 69 66 63 61 58 55 51 47 43 38 34 29 25 21 16 13 10 6 2 359 355 350 345 340 335 331 328 323 316 311 307 302 297 297 298 292 285 274 272 259
85 76 71 67 65 63 59 55 52 48 42 38 34 29 25 22 18 13 8 4 1 358 353 349 345 340 336 332 327 323 318 315 310 306 303 296 291 289 289 287 276 268 261
90 87 77 69 64 62 57 51 46 41 35 32 28 24 20 16 12 8 4 1 357 353 348 345 341 338 332 329 324 320 317 312 309 305 302 297 293 288 284 282 284 273 264
99 84 77 72 65 61 56 48 42 35 31 27 21 16 13 9 6 3 360 356 351 348 346 344 341 336 332 330 323 317 314 311 306 304 300 296 294 290 285 283 278 280 275
102 89 74 65 58 53 49 45 37 30 24 20 14 12 7 4 1 358 355 352 349 346 346 343 339 338 331 328 322 313 310 305 304 302 298 296 291 290 287 282 281 276 275
102 86 74 60 50 40 35 29 23 21 17 12 10 7 3 1 358 356 352 350 348 345 343 343 339 335 329 325 320 311 307 303 304 298 297 300 295 296 297 292 285 285 277
118 97 70 53 40 28 22 16 9 5 5 4 3 1 359 357 355 354 349 346 344 342 337 338 337 336 336 336 329 323 312 302 299 296 308 316 319 328 330 334 329 319 308
132 97 69 48 34 27 23 17 9 359 354 354 355 355 354 351 349 346 343 341 339 335 333 333 334 332 328 337 326 316 325 319 335 318 311 312 322 324 327 332 337 329 331
135 108 65 43 31 21 14 6 2 359 351 349 347 345 345 344 343 342 341 336 332 330 324 324 325 324 318 320 320 304 316 310 330 301 309 308 309 318 317 312 316 313 315
141 111 69 37 23 15 7 4 4 1 347 334 334 333 336 340 339 338 335 331 326 321 315 313 312 308 307 306 311 285 270 281 302 309 287 301 303 304 304 306 309 308 304
149 121 70 31 13 5 0 359 356 348 338 331 333 333 334 335 336 334 332 327 322 316 310 306 305 302 295 289 287 286 284 279 272 272 292 293 291 294 295 300 302 298 301
152 126 69 12 3 357 355 353 348 343 337 332 332 332 330 327 328 328 326 322 319 313 308 305 302 294 289 284 280 275 271 271 274 277 284 290 288 290 291 292 294 296 292